Location: Julian California
(33.0790°N, 116.6010°W)
Time: 06:10:07
(UTC-07:00)

Cosmos 1603 - Pass Details

Date: 19 May 2017
Orbit: 830 x 861 km, 71.0° (Epoch: 28 May)

Event Time Altitude Azimuth Distance (km) Brightness Sun altitude
Rises 20:00:38 0° 208° (SSW) 3,399 6.9 -4.3°
Reaches altitude 10° 20:03:06 10° 211° (SSW) 2,471 6.2 -4.8°
Maximum altitude 20:08:43 62° 292° (WNW) 955 4.4 -5.8°
Drops below altitude 10° 20:14:25 10° 13° (NNE) 2,497 6.4 -6.8°
Sets 20:16:55 0° 17° (NNE) 3,438 7.0 -7.3°
